Skip Page Navigation
NASA JPL Caltech
NASA Logo - Jet Propulsion Laboratory + View the NASA Portal
+ Center for Near-Earth Object Studies
JPL Home Earth Solar System Stars & Galaxies Technology
JPL Solar System Dynamics
BODIES ORBITS EPHEMERIDES TOOLS PHYSICAL DATA DISCOVERY FAQ SITE MAP
JPL Small-Body Database Browser
Search: [ help ]  
6918 Manaslu (1993 FV3)
Classification: Main-belt Asteroid          SPK-ID: 2006918
Ephemeris | Orbit Diagram | Orbital Elements | Mission Design | Physical Parameters | Discovery Circumstances | Close-Approach Data ]

[ show orbit diagram ]
Orbital Elements at Epoch 2459000.5 (2020-May-31.0) TDB
Reference: JPL 32 (heliocentric ecliptic J2000)
 Element Value Uncertainty (1-sigma)   Units 
e .1397861052087728 3.6516e-08  
a 2.409448158186565 6.8782e-09 au
q 2.072640784451214 8.7187e-08 au
i 1.864284375690015 3.7181e-06 deg
node 183.4862654084038 9.8764e-05 deg
peri 346.9894007592566 9.9387e-05 deg
M 114.5703282906203 1.0942e-05 deg
tp 2458565.745122256618
(2019-Mar-23.24512226)
4.1398e-05 TDB
period 1366.075827160136
3.74
5.8496e-06
1.602e-08
d
yr
n .2635285632338472 1.1284e-09 deg/d
Q 2.746255531921916 7.8397e-09 au
  Orbit Determination Parameters
   # obs. used (total)      2625  
   data-arc span      13005 days (35.61 yr)  
   first obs. used      1984-12-28  
   last obs. used      2020-08-06  
   planetary ephem.      DE431  
   SB-pert. ephem.      SB431-N16  
   condition code      0  
   norm. resid. RMS      .44484  
   source      ORB  
   producer      Otto Matic  
   solution date      2020-Aug-24 23:45:02  

Additional Information
 Earth MOID = 1.07854 au 
 Jupiter MOID = 2.22164 au 
 T_jup = 3.506 
[ show covariance matrix ]

Ephemeris | Orbit Diagram | Orbital Elements | Mission Design | Physical Parameters | Discovery Circumstances | Close-Approach Data ]

Physical Parameter Table
Parameter Symbol Value Units Sigma Reference Notes
absolute magnitude H 13.7   n/a MPO473862  
diameter diameter 5.216 km 0.873 urn:nasa:pds:neowise_diameters_albedos::2.0[mainbelt] (http://adsabs.harvard.edu/abs/2015ApJ...814..117N)  
rotation period rot_per 8.97 h n/a LCDB (Rev. 2019-August); Warner et al., 2009 Result based on less than full coverage, so that the period may be wrong by 30 percent or so.
Published Reference List:
[Chang, C.-K.; Lin, H.-W.; Ip, W.-H.; Prince, T.A.; et al. (2016) Astrophys. J. Sup. Ser. 227, A20.]
geometric albedo albedo 0.269   0.115 urn:nasa:pds:neowise_diameters_albedos::2.0[mainbelt] (http://adsabs.harvard.edu/abs/2015ApJ...814..117N)  

6918 Manaslu           Discovered 1993 Mar. 20 by M. Hirasawa and S. Suzuki at Nyukasa.
Named for an 8156-m mountain in the Himalayas. The summit was first reached by the Japanese party led by Aritsune Maki in 1956.
NOTE: some special characters may not display properly (any characters within {} are an attempt to place the proper accent above a character)
Reference: 19990402/MPCPages.arcLast Updated: 2010-06-11

[ show close-approach data ]
Alternate Designations
 1993 FV3 = 1952 HJ3 = 1984 YQ4 = 1991 VZ16 = 1994 PO36 
Ephemeris | Orbit Diagram | Orbital Elements | Mission Design | Physical Parameters | Discovery Circumstances | Close-Approach Data ]
ABOUT SSD CREDITS/AWARDS PRIVACY/COPYRIGHT GLOSSARY LINKS
FirstGov 2020-Oct-27 10:24 UT
(server date/time)  
NASA Home Page
Site Manager:   Ryan S. Park
Webmaster  Alan B. Chamberlin